Wind_Speed
3 2 4 4 16 18 11 16 18 24 15 14 13 14 17 18 12 9 10 11 10 10 10 12 11 8 8 7 8 8 7 8 7 5 3 4 3 3 4 5 5 7 9 10 11 10 8 4 5
4 6 4 12 16 13 10 10 10 19 17 10 11 16 19 15 12 11 10 9 9 8 10 12 9 8 7 7 8 7 8 9 9 5 3 3 5 7 4 2 4 8 12 11 12 11 7 6 4
6 6 3 15 19 14 9 10 11 19 11 11 12 14 14 13 11 10 8 9 8 8 11 10 8 8 7 8 8 8 9 10 9 7 10 7 5 7 6 2 4 8 11 12 15 11 3 2 4
11 5 11 16 17 16 14 11 12 9 6 10 10 11 7 10 8 6 10 7 6 9 11 8 8 7 8 7 8 10 11 11 11 12 12 14 7 1 1 5 6 6 8 12 16 14 11 9 7
13 2 12 15 23 20 14 13 13 8 3 7 12 10 9 9 6 5 8 6 6 9 9 7 7 7 6 8 10 12 12 15 16 15 18 22 23 12 7 8 11 10 10 14 16 16 19 18 10
15 6 19 16 17 15 17 13 11 7 5 5 5 7 9 10 7 7 8 7 6 8 7 7 7 7 7 9 12 10 12 16 22 20 18 23 19 21 20 17 13 10 11 13 11 15 20 20 19
11 4 17 19 13 17 18 16 13 6 7 6 4 6 7 7 6 10 7 8 8 7 6 7 7 6 9 13 13 10 14 18 17 16 16 17 19 18 17 14 13 12 10 14 14 16 18 23 29
5 17 10 11 11 20 17 16 12 10 8 7 7 7 8 10 9 12 11 10 9 8 5 8 9 11 14 14 11 12 15 16 16 19 25 21 14 15 14 10 11 9 10 14 15 16 25 25 24
2 10 7 12 18 10 17 14 13 10 7 7 8 9 11 11 11 8 10 10 9 8 8 8 12 13 14 13 11 13 15 16 18 19 19 20 18 15 13 15 14 13 14 15 16 23 25 32 28
2 9 18 13 11 13 12 9 10 9 9 6 6 10 10 13 13 9 9 9 9 7 8 9 12 13 12 12 11 11 16 18 15 19 21 21 19 20 18 19 16 14 16 18 19 19 20 24 23
9 17 11 11 6 13 12 12 11 7 7 5 2 8 12 11 11 10 10 8 7 6 7 9 10 11 10 13 8 13 15 16 21 20 20 24 21 21 21 19 16 19 19 20 19 18 23 24 20
8 4 4 9 11 16 16 15 12 15 9 8 7 4 7 9 8 10 9 8 6 4 7 8 10 10 11 12 6 9 11 17 22 20 20 25 21 21 20 20 19 20 19 17 18 17 22 23 20
7 7 4 2 13 12 16 18 11 6 10 8 5 5 5 7 7 11 10 8 5 5 6 8 11 11 14 11 10 13 12 19 17 21 20 23 19 22 20 20 20 21 17 16 16 17 17 18 19
14 12 7 11 12 12 12 13 13 11 10 8 5 2 4 6 7 9 13 9 4 5 7 9 12 14 15 12 11 13 15 19 17 20 20 17 19 21 19 16 16 18 17 16 16 16 17 18 17
18 12 11 9 6 7 11 11 11 8 8 6 6 2 2 4 6 9 14 11 8 8 10 13 15 16 15 14 11 13 17 17 18 19 17 20 20 21 20 16 17 19 18 16 17 18 18 17 17
18 18 17 10 7 7 13 11 12 9 8 6 6 4 4 2 4 10 14 14 11 10 13 15 16 15 14 10 11 15 16 17 16 18 16 16 18 20 22 22 21 21 20 19 20 19 18 16 17
22 23 17 16 14 6 8 4 12 10 10 8 6 5 3 3 3 9 16 15 14 15 17 17 16 15 14 12 12 15 14 16 14 17 15 19 19 17 19 19 19 18 19 18 19 20 20 17 18
23 22 22 23 17 9 9 12 3 9 11 10 5 5 4 1 2 12 17 17 16 19 19 18 15 15 13 12 11 13 13 13 14 14 15 17 16 16 16 16 15 16 16 18 17 18 18 18 16
31 32 27 18 17 17 12 13 11 6 11 7 7 6 4 6 3 13 19 20 17 19 20 18 16 14 13 12 11 12 12 12 13 13 15 16 16 16 17 16 14 14 15 16 16 17 16 15 15
31 31 25 13 18 15 14 11 11 4 4 3 4 4 5 5 4 13 19 21 19 21 22 20 16 14 12 10 11 11 11 12 11 11 14 16 17 16 15 15 14 14 15 15 15 15 15 16 17
29 31 15 8 10 19 19 7 4 3 4 5 5 3 1 5 4 16 21 23 22 21 22 22 17 15 12 10 10 10 10 11 9 9 12 14 15 15 14 14 13 13 13 14 15 15 13 14 15
37 30 17 10 11 25 17 13 12 2 8 8 10 6 4 3 5 15 23 25 23 23 23 22 19 16 13 10 10 9 9 10 7 9 12 13 14 13 14 13 12 12 13 13 15 16 16 15 16
41 31 22 12 16 8 6 11 5 5 3 14 13 12 7 7 11 15 18 26 26 26 25 24 20 17 13 11 9 9 7 8 6 9 10 12 12 13 13 13 15 16 16 17 17 17 17 17 17
34 31 32 23 18 16 8 13 8 4 3 16 15 9 8 12 10 18 21 26 28 31 29 26 22 18 15 12 10 8 7 6 5 9 9 9 9 10 12 15 14 14 16 18 19 18 18 19 18
37 37 35 30 28 17 7 15 10 7 7 13 11 10 10 7 9 13 20 24 29 30 30 27 22 19 15 13 11 9 6 6 5 6 9 7 6 9 10 12 12 12 15 17 19 21 19 19 21
44 40 43 37 30 18 11 19 15 16 14 16 15 12 16 12 11 12 20 25 31 31 31 28 24 20 16 15 12 10 7 6 3 5 6 4 4 5 8 10 10 11 14 17 20 21 24 24 25
39 44 40 36 29 25 23 22 22 18 17 16 17 24 30 23 15 14 19 25 26 31 32 29 25 21 18 15 13 11 9 7 4 5 4 3 3 4 8 9 10 12 14 16 19 21 23 26 27
44 40 42 42 38 35 28 25 22 13 14 16 16 13 20 25 20 20 19 23 26 29 33 30 27 23 19 16 14 12 10 8 6 4 5 2 2 4 8 6 6 9 14 16 18 20 22 24 26
41 44 48 42 40 38 33 30 23 12 15 10 8 9 17 22 19 19 20 22 25 29 33 30 27 23 18 15 14 13 11 10 7 5 4 3 4 6 4 4 6 9 12 16 20 21 21 22 24
45 45 50 49 44 43 39 34 26 22 12 17 14 24 19 23 19 20 23 24 27 28 33 29 27 22 20 17 15 13 12 10 8 5 5 4 3 4 3 4 7 10 14 17 20 21 22 26 29
Wind_Direction
102 113 248 180 135 134 136 124 118 131 115 134 120 112 117 104 113 96 90 93 94 89 89 81 72 66 50 35 25 24 20 22 10 26 20 349 331 351 47 58 50 19 10 357 340 335 307 314 340
274 324 239 246 132 133 127 125 124 131 109 127 119 100 117 111 111 100 96 91 91 84 83 74 67 56 44 33 22 25 25 24 25 34 14 329 319 303 215 49 36 23 4 354 349 346 317 278 308
342 12 137 140 117 109 107 130 122 159 122 133 129 116 115 116 104 107 105 99 90 78 72 70 60 51 40 36 24 33 39 29 20 25 29 19 21 34 200 339 10 4 9 11 10 11 10 1 355
0 25 121 121 133 111 101 105 116 101 104 89 94 97 96 103 110 133 117 106 99 78 76 68 61 55 44 38 38 47 43 37 29 33 39 37 28 88 119 346 341 19 34 26 32 35 53 45 27
347 41 158 111 98 105 101 118 110 93 71 111 95 106 79 67 69 128 106 99 88 77 79 70 62 57 46 47 59 57 49 43 45 64 73 62 54 54 74 62 70 57 57 56 49 53 57 61 41
22 147 114 95 106 118 116 109 115 102 82 76 90 98 83 64 73 114 123 106 91 85 83 78 71 59 58 62 68 66 59 55 55 54 68 60 65 65 73 85 80 65 57 62 54 48 50 45 31
73 47 106 127 132 133 129 123 112 99 91 83 87 126 141 87 82 103 122 116 95 93 92 88 76 70 69 72 71 67 58 51 51 56 41 49 68 68 71 73 74 62 64 60 52 54 49 43 49
48 32 46 24 37 148 124 124 120 105 91 77 90 107 117 130 126 105 117 112 96 100 96 91 76 76 75 78 78 78 65 52 52 60 54 70 49 58 62 66 62 65 60 60 58 56 55 56 51
24 351 32 50 31 73 105 116 123 109 107 109 97 101 120 137 149 125 125 99 96 106 100 91 74 72 80 83 73 68 66 65 56 52 67 61 65 64 61 60 61 58 71 64 55 66 63 73 56
123 24 68 54 59 47 65 100 125 140 131 122 122 118 132 134 147 134 125 109 109 98 94 94 74 75 90 89 72 70 61 59 59 61 62 58 66 68 66 63 67 73 72 70 67 71 71 71 74
59 68 51 9 74 81 90 95 108 121 99 113 104 137 144 142 145 135 127 111 113 99 70 88 79 82 109 98 84 61 58 55 52 62 63 59 64 70 71 68 76 76 68 65 65 61 63 70 65
75 82 32 4 58 94 91 82 123 127 110 103 105 149 171 171 164 134 141 131 126 103 65 93 86 92 115 118 101 67 51 38 47 60 71 61 69 73 70 73 71 68 64 64 62 50 61 63 68
173 95 110 59 78 76 76 68 62 78 58 67 83 106 128 154 169 144 149 143 123 105 73 95 97 111 119 120 107 85 63 52 49 57 50 70 71 73 72 76 77 74 63 58 50 44 41 43 47
180 190 139 61 34 47 66 73 63 40 41 32 40 103 132 122 155 153 154 156 150 131 110 112 111 120 112 109 89 82 61 53 43 59 70 69 66 77 76 72 79 79 75 65 51 44 41 42 45
181 168 156 161 82 90 107 98 85 77 72 61 43 55 121 143 137 165 165 168 174 140 130 120 125 122 110 100 91 70 59 57 53 59 68 62 74 73 68 73 77 70 63 60 57 50 39 35 37
195 196 174 163 169 117 134 124 84 60 58 48 49 37 60 52 136 165 169 179 164 153 147 135 133 126 110 95 79 70 63 56 58 69 75 73 86 80 74 70 74 74 73 70 64 60 53 48 45
196 189 191 191 203 166 167 206 128 94 65 34 15 30 36 51 162 172 173 172 165 161 148 147 139 126 113 106 85 76 64 63 59 72 77 84 89 86 77 71 66 64 65 61 61 55 47 43 43
197 191 193 197 209 234 198 208 190 131 93 63 355 0 342 317 195 182 174 172 168 156 151 147 141 128 117 104 90 76 69 66 64 71 83 89 89 85 84 79 68 60 53 47 37 48 48 48 57
201 206 197 219 212 204 224 207 208 159 119 77 48 358 347 298 179 191 176 173 168 159 157 153 147 135 116 108 100 84 71 65 66 73 90 91 89 88 83 78 73 69 59 50 35 23 28 37 37
211 217 214 216 232 203 205 197 197 154 60 67 55 45 353 314 231 178 176 177 170 166 163 159 155 141 125 112 103 88 82 67 66 66 79 86 86 82 78 71 65 59 56 53 45 37 23 21 17
215 218 236 245 218 195 200 199 114 28 16 12 15 45 353 312 234 177 175 180 169 170 170 166 161 148 137 125 109 98 95 85 80 71 81 89 88 86 82 74 67 58 49 41 38 36 30 18 10
209 226 226 175 209 195 194 193 120 316 348 19 355 324 287 220 220 181 174 175 174 175 175 171 165 156 146 136 125 112 107 99 101 79 76 85 92 88 79 70 68 62 55 45 36 31 22 17 15
210 218 216 214 173 227 225 190 164 155 25 341 346 309 296 237 198 172 184 178 179 176 180 175 171 163 156 147 136 122 108 114 112 91 78 83 90 86 84 73 61 55 43 38 34 25 17 7 1
210 216 210 198 227 229 172 251 201 204 342 301 307 302 279 266 201 190 190 190 181 178 179 176 173 168 159 154 145 135 120 111 117 110 92 86 90 84 78 68 59 50 44 34 30 20 11 7 356
205 209 210 215 214 214 190 243 234 245 260 277 299 298 251 242 246 201 188 192 185 176 180 177 175 170 165 159 156 145 133 123 123 123 109 113 103 85 70 63 55 45 38 34 24 17 9 6 360
209 206 212 212 214 179 214 251 255 242 252 274 269 248 259 219 210 198 176 179 181 180 179 178 176 175 170 166 163 155 146 139 148 118 140 146 110 87 82 64 54 38 27 23 19 10 2 4 2
208 211 211 214 205 209 209 235 239 225 247 269 274 260 237 225 186 200 191 179 182 182 180 180 178 178 175 171 170 166 156 152 167 140 126 106 111 81 72 60 32 23 20 14 9 6 2 1 359
213 211 207 210 204 209 210 226 248 245 258 280 288 143 168 206 183 196 187 184 182 190 185 183 182 179 180 179 177 175 171 165 170 164 136 123 120 106 81 62 19 7 18 13 3 1 3 3 360
207 209 209 210 209 207 215 222 233 258 291 299 235 205 200 197 181 196 188 186 186 194 193 188 185 183 181 183 182 181 177 172 164 185 159 165 168 127 92 55 358 358 5 7 1 358 357 360 3
206 205 205 212 209 208 214 220 224 227 261 276 244 251 238 204 181 193 195 186 191 195 198 192 189 186 186 190 191 190 190 183 174 173 208 194 203 130 29 355 341 357 354 0 0 0 1 5 5
Height
5897 5895 5894 5893 5895 5891 5892 5896 5896 5899 5904 5906 5908 5907 5908 5909 5911 5915 5912 5911 5911 5910 5909 5910 5910 5909 5909 5908 5907 5906 5903 5901 5899 5897 5896 5894 5893 5892 5891 5890 5889 5889 5889 5887 5884 5882 5881 5880 5880
5894 5893 5892 5889 5895 5894 5896 5898 5899 5902 5904 5907 5910 5911 5910 5911 5913 5913 5914 5913 5913 5912 5911 5911 5910 5910 5910 5909 5908 5906 5905 5903 5901 5898 5896 5895 5893 5891 5892 5890 5889 5889 5888 5886 5884 5881 5879 5879 5879
5896 5894 5892 5889 5894 5897 5899 5899 5901 5905 5905 5907 5910 5913 5912 5912 5914 5914 5914 5914 5914 5914 5913 5912 5911 5912 5911 5910 5908 5907 5905 5902 5899 5898 5897 5896 5894 5893 5893 5893 5891 5889 5887 5887 5884 5880 5878 5878 5879
5898 5898 5896 5896 5894 5899 5901 5902 5904 5907 5909 5908 5910 5913 5915 5914 5915 5914 5914 5915 5915 5915 5914 5913 5913 5913 5912 5911 5910 5908 5906 5903 5901 5900 5901 5899 5896 5893 5894 5895 5893 5891 5889 5887 5884 5880 5878 5878 5878
5900 5898 5895 5894 5897 5899 5903 5904 5906 5909 5911 5911 5910 5914 5917 5917 5916 5916 5915 5916 5916 5915 5915 5915 5914 5914 5913 5912 5911 5909 5907 5906 5904 5902 5902 5900 5898 5896 5894 5893 5893 5894 5892 5889 5886 5881 5881 5881 5879
5900 5897 5898 5896 5898 5903 5903 5906 5908 5910 5912 5911 5912 5914 5917 5918 5917 5916 5917 5916 5916 5916 5916 5916 5916 5915 5914 5913 5911 5909 5910 5909 5909 5908 5907 5904 5902 5900 5898 5896 5896 5895 5893 5891 5887 5887 5887 5885 5880
5898 5897 5896 5899 5899 5902 5904 5905 5908 5911 5912 5911 5913 5914 5916 5918 5918 5916 5917 5917 5917 5917 5918 5918 5917 5916 5914 5914 5912 5911 5912 5912 5912 5910 5908 5906 5904 5902 5901 5899 5897 5896 5893 5892 5891 5891 5888 5888 5887
5902 5901 5900 5897 5896 5899 5901 5904 5908 5910 5912 5913 5913 5914 5915 5917 5917 5917 5918 5919 5918 5918 5919 5919 5917 5916 5916 5914 5913 5913 5914 5914 5912 5909 5909 5909 5906 5904 5902 5900 5898 5896 5895 5894 5893 5894 5894 5892 5891
5901 5902 5901 5901 5899 5895 5899 5903 5906 5909 5911 5913 5915 5915 5916 5916 5918 5919 5920 5920 5920 5919 5920 5920 5918 5918 5917 5916 5915 5915 5915 5915 5913 5913 5913 5911 5909 5906 5903 5900 5899 5899 5897 5897 5896 5896 5895 5894 5895
5901 5901 5902 5904 5901 5900 5903 5904 5909 5910 5911 5913 5914 5916 5916 5917 5918 5919 5920 5922 5921 5920 5921 5921 5920 5919 5918 5918 5917 5916 5915 5916 5916 5915 5914 5912 5910 5907 5905 5902 5903 5902 5900 5899 5899 5897 5897 5894 5894
5902 5900 5904 5906 5904 5904 5907 5907 5909 5909 5910 5912 5914 5915 5916 5918 5919 5919 5920 5922 5922 5921 5923 5921 5921 5920 5920 5920 5918 5917 5917 5917 5918 5917 5916 5914 5912 5909 5908 5907 5907 5905 5903 5902 5900 5898 5904 5902 5902
5901 5902 5903 5905 5904 5905 5908 5908 5909 5909 5911 5912 5913 5915 5916 5917 5918 5919 5920 5922 5923 5922 5922 5923 5922 5921 5922 5922 5921 5920 5918 5918 5918 5917 5915 5914 5914 5912 5912 5911 5911 5907 5906 5905 5903 5901 5905 5905 5905
5903 5906 5905 5903 5904 5908 5907 5910 5914 5914 5913 5914 5913 5914 5915 5916 5917 5919 5921 5922 5923 5922 5923 5924 5924 5924 5924 5924 5924 5923 5923 5922 5919 5916 5916 5916 5915 5914 5915 5915 5914 5911 5910 5908 5906 5905 5904 5905 5906
5900 5901 5906 5903 5905 5906 5910 5912 5913 5912 5913 5915 5914 5914 5914 5915 5916 5918 5921 5921 5923 5923 5925 5927 5926 5926 5925 5927 5926 5926 5926 5924 5922 5919 5919 5919 5918 5918 5918 5918 5918 5915 5914 5912 5911 5909 5907 5906 5907
5900 5902 5906 5904 5908 5910 5912 5914 5915 5914 5914 5915 5915 5914 5914 5913 5915 5917 5920 5921 5924 5923 5926 5929 5928 5928 5928 5929 5929 5928 5926 5926 5925 5923 5922 5921 5921 5921 5920 5921 5921 5918 5916 5916 5914 5912 5910 5909 5908
5901 5903 5903 5907 5907 5906 5909 5911 5913 5916 5915 5915 5915 5914 5914 5914 5915 5916 5919 5921 5923 5924 5927 5929 5930 5930 5929 5930 5929 5929 5928 5927 5927 5926 5925 5925 5924 5924 5924 5924 5923 5921 5920 5918 5917 5916 5914 5912 5911
5900 5902 5902 5904 5906 5907 5910 5910 5909 5912 5915 5914 5914 5914 5913 5913 5914 5917 5919 5921 5925 5926 5928 5930 5931 5931 5931 5933 5931 5931 5931 5930 5929 5928 5928 5927 5927 5928 5926 5926 5926 5925 5922 5920 5920 5918 5917 5915 5913
5897 5898 5899 5903 5906 5907 5909 5908 5907 5906 5910 5912 5913 5912 5912 5910 5913 5914 5918 5920 5924 5926 5928 5930 5931 5932 5933 5934 5933 5932 5933 5933 5932 5930 5930 5930 5930 5930 5929 5929 5929 5927 5925 5923 5922 5922 5920 5918 5917
5893 5895 5898 5899 5903 5904 5908 5908 5908 5906 5904 5909 5911 5911 5913 5910 5910 5913 5917 5918 5923 5926 5928 5930 5932 5933 5934 5935 5935 5934 5934 5935 5934 5934 5933 5933 5932 5932 5932 5932 5932 5930 5928 5927 5925 5922 5922 5921 5918
5888 5890 5897 5897 5897 5902 5905 5907 5907 5906 5904 5903 5906 5908 5909 5909 5908 5910 5915 5918 5922 5925 5929 5931 5933 5934 5935 5936 5936 5936 5935 5936 5937 5936 5934 5934 5934 5934 5935 5934 5933 5932 5931 5930 5929 5927 5925 5922 5919
5884 5888 5893 5893 5894 5898 5902 5906 5906 5907 5906 5903 5904 5906 5907 5907 5906 5908 5912 5917 5921 5926 5929 5931 5933 5935 5936 5937 5937 5938 5938 5938 5940 5940 5938 5937 5938 5938 5937 5936 5935 5934 5933 5931 5930 5929 5928 5925 5921
5879 5885 5890 5889 5892 5890 5899 5901 5899 5904 5905 5906 5904 5905 5906 5906 5906 5907 5910 5914 5919 5924 5928 5931 5934 5936 5937 5938 5939 5939 5940 5940 5942 5942 5940 5940 5940 5940 5939 5938 5938 5937 5935 5933 5932 5930 5927 5925 5923
5877 5883 5887 5885 5887 5889 5893 5895 5897 5894 5900 5905 5904 5903 5904 5905 5905 5906 5908 5912 5915 5922 5927 5931 5934 5936 5938 5939 5939 5940 5941 5942 5943 5942 5942 5941 5941 5941 5941 5940 5939 5937 5935 5934 5932 5930 5928 5925 5922
5875 5878 5880 5879 5883 5882 5888 5891 5892 5895 5896 5901 5902 5901 5904 5905 5904 5904 5907 5909 5913 5919 5924 5929 5933 5936 5938 5939 5940 5941 5942 5942 5943 5943 5943 5943 5944 5944 5943 5942 5941 5940 5938 5935 5932 5930 5928 5924 5920
5863 5870 5873 5873 5874 5878 5886 5887 5888 5889 5893 5896 5898 5899 5901 5904 5904 5905 5906 5910 5913 5918 5923 5928 5932 5935 5938 5939 5940 5941 5943 5943 5944 5944 5943 5945 5946 5945 5945 5944 5943 5941 5939 5936 5933 5930 5927 5924 5920
5855 5862 5865 5867 5871 5878 5882 5881 5884 5887 5891 5894 5896 5897 5898 5900 5901 5905 5906 5908 5913 5917 5921 5926 5930 5934 5937 5939 5940 5942 5943 5944 5944 5944 5944 5946 5946 5946 5946 5945 5944 5941 5938 5936 5934 5931 5926 5923 5919
5852 5852 5864 5865 5870 5872 5875 5876 5879 5884 5885 5887 5889 5891 5891 5896 5898 5902 5907 5908 5912 5916 5920 5925 5928 5932 5935 5938 5940 5942 5943 5944 5945 5944 5945 5946 5946 5947 5946 5945 5944 5941 5939 5936 5933 5931 5927 5922 5918
5840 5853 5854 5855 5860 5863 5867 5870 5874 5879 5879 5881 5882 5883 5885 5892 5895 5898 5904 5908 5910 5915 5919 5922 5926 5930 5934 5936 5939 5941 5943 5944 5944 5944 5945 5947 5947 5947 5945 5945 5943 5941 5939 5936 5933 5929 5926 5922 5918
5832 5838 5843 5850 5855 5858 5861 5864 5871 5875 5877 5880 5882 5886 5889 5892 5892 5897 5899 5904 5907 5912 5919 5922 5925 5928 5932 5935 5937 5940 5942 5943 5944 5944 5945 5946 5947 5946 5945 5944 5942 5941 5939 5936 5933 5929 5925 5922 5918
5822 5829 5835 5840 5847 5852 5855 5860 5868 5873 5877 5879 5884 5884 5889 5890 5891 5895 5896 5897 5904 5910 5917 5921 5923 5927 5930 5933 5936 5938 5940 5942 5943 5944 5944 5945 5946 5945 5943 5942 5941 5940 5938 5935 5932 5928 5924 5920 5915